Location: Moscow
(55.7500°N, 37.5830°E)
Time: 04:05:34
(UTC+03:00)

Kosmos-337 - Pass Details

Date: 11 July 2022
Orbit: 1467 x 1552 km, 74.0° (Epoch: 13 August)

Event Time Altitude Azimuth Distance (km) Brightness Sun altitude
Rises 02:02:10 0° 332° (NNW) 4,736 ? -9.9°
Reaches altitude 10° 02:05:38 10° 322° (NW) 3,745 ? -9.8°
Maximum altitude 02:12:55 28° 269° (W) 2,582 ? -9.4°
Drops below altitude 10° 02:20:07 10° 216° (SW) 3,692 ? -9.0°
Enters shadow 02:20:13 10° 215° (SW) 3,717 ? -9.0°
